Albion, NE

11:49 PM CDT on August 17, 2019 (GMT -0500)
Albion Municipal

Weather History for KBVN - June, 2019

Change the Weather History Date:

Wednesday, June 12, 2019

  Actual Average (KOFK) Record (KOFK)
Temperature  
Mean Temperature 62 °F -  
Max Temperature 72 °F 82 °F 99 °F (1952)
Min Temperature 52 °F 58 °F 41 °F (1903)
Degree Days  
Heating Degree Days 3    
Growing Degree Days 12 (Base 50)    
Moisture  
Dew Point 46 °F    
Average Humidity 62    
Maximum Humidity 92    
Minimum Humidity 29    
Precipitation  
Precipitation 0.00 in - - ()
Sea Level Pressure  
Sea Level Pressure 30.11 in    
Wind  
Wind Speed 8 mph (NNW)    
Max Wind Speed 21 mph    
Max Gust Speed 28 mph    
Visibility 10 miles    
Events      
Averages and records for this station are not official NWS values.
T = Trace of Precipitation, MM = Missing Value Source: NWS Daily Summary

Daily Weather History Graph

Daily Weather History Graph

Search for Another Location

Airport or City:

Astronomy

Jun. 12, 2019 Rise Set
Actual Time 5:57 AM CDT 9:07 PM CDT
Civil Twilight 5:23 AM CDT 9:41 PM CDT
Nautical Twilight 4:39 AM CDT 10:25 PM CDT
Astronomical Twilight 3:47 AM CDT 11:17 PM CDT
Moon 4:11 PM CDT (6/12) 3:17 AM CDT (6/12)
Length of Visible Light 16h 18m
Length of Day
15h 10m
Waxing Gibbous, 77% of the Moon is Illuminated
Jun 12
Waxing Gibbous
Jun 17
Full
Jun 25
Last Quarter
Jul 2
New
Jul 9
First Quarter

Hourly Weather History & Observations

Time (CDT) Temp. Dew Point Humidity Pressure Visibility Wind Dir Wind Speed Gust Speed Precip Events Conditions
12:15 AM 54.9 °F 51.8 °F 89% 30.05 in 10.0 mi NNW 4.6 mph - N/A   Clear
12:35 AM 55.0 °F 51.6 °F 88% 30.05 in 10.0 mi WNW 4.6 mph - N/A   Clear
12:55 AM 55.4 °F 51.8 °F 88% 30.05 in 10.0 mi Calm Calm - N/A   Clear
1:15 AM 56.3 °F 52.0 °F 85% 30.05 in 10.0 mi NW 4.6 mph - N/A   Clear
1:35 AM 55.4 °F 51.8 °F 88% 30.05 in 10.0 mi NW 4.6 mph - N/A   Scattered Clouds
1:55 AM 55.6 °F 52.2 °F 88% 30.05 in 10.0 mi NW 4.6 mph - N/A   Mostly Cloudy
2:15 AM 55.9 °F 52.3 °F 88% 30.05 in 10.0 mi NNW 6.9 mph - N/A   Overcast
2:35 AM 56.1 °F 52.7 °F 88% 30.05 in 10.0 mi NNW 6.9 mph - N/A   Overcast
2:55 AM 56.3 °F 51.8 °F 85% 30.05 in 10.0 mi NNW 8.1 mph - N/A   Mostly Cloudy
3:15 AM 54.7 °F 51.1 °F 88% 30.06 in 10.0 mi NNW 6.9 mph - N/A   Scattered Clouds
3:35 AM 53.8 °F 50.9 °F 90% 30.06 in 10.0 mi NW 8.1 mph - N/A   Clear
3:55 AM 53.6 °F 50.4 °F 89% 30.06 in 10.0 mi NNW 6.9 mph - N/A   Scattered Clouds
4:15 AM 53.4 °F 50.0 °F 88% 30.06 in 10.0 mi NW 9.2 mph - N/A   Mostly Cloudy
4:35 AM 54.0 °F 50.0 °F 86% 30.07 in 10.0 mi NNW 9.2 mph - N/A   Mostly Cloudy
4:55 AM 53.8 °F 50.0 °F 87% 30.07 in 10.0 mi NNW 9.2 mph - N/A   Mostly Cloudy
5:15 AM 53.1 °F 50.0 °F 89% 30.08 in 10.0 mi NNW 10.4 mph - N/A   Scattered Clouds
5:35 AM 52.9 °F 50.0 °F 90% 30.08 in 10.0 mi NNW 6.9 mph - N/A   Scattered Clouds
5:55 AM 52.2 °F 50.0 °F 92% 30.08 in 10.0 mi NNW 8.1 mph - N/A   Clear
6:15 AM 52.3 °F 50.0 °F 92% 30.09 in 10.0 mi NNW 6.9 mph - N/A   Clear
6:35 AM 52.7 °F 50.0 °F 91% 30.09 in 10.0 mi NNW 9.2 mph - N/A   Clear
6:55 AM 53.1 °F 50.2 °F 90% 30.10 in 10.0 mi NNW 9.2 mph - N/A   Clear
7:15 AM 54.9 °F 51.1 °F 87% 30.11 in 10.0 mi NNW 10.4 mph - N/A   Clear
7:35 AM 56.7 °F 51.6 °F 83% 30.11 in 10.0 mi North 9.2 mph - N/A   Clear
7:55 AM 57.6 °F 51.8 °F 81% 30.11 in 10.0 mi North 12.7 mph 16.1 mph N/A   Clear
8:15 AM 58.3 °F 52.2 °F 80% 30.12 in 10.0 mi North 12.7 mph 16.1 mph N/A   Clear
8:35 AM 59.2 °F 52.7 °F 79% 30.13 in 10.0 mi North 13.8 mph - N/A   Scattered Clouds
8:55 AM 60.1 °F 52.9 °F 77% 30.14 in 10.0 mi North 12.7 mph 18.4 mph N/A   Scattered Clouds
9:15 AM 60.8 °F 51.6 °F 72% 30.15 in 10.0 mi North 13.8 mph 18.4 mph N/A   Scattered Clouds
9:35 AM 62.4 °F 51.6 °F 68% 30.15 in 10.0 mi North 13.8 mph - N/A   Scattered Clouds
9:55 AM 63.0 °F 50.9 °F 65% 30.15 in 10.0 mi North 12.7 mph 20.7 mph N/A   Mostly Cloudy
10:15 AM 63.3 °F 49.5 °F 61% 30.16 in 10.0 mi North 11.5 mph 20.7 mph N/A   Scattered Clouds
10:35 AM - - N/A% - - North - - N/A   Unknown
10:55 AM - - N/A% - - North - - N/A   Unknown
11:20 AM - - N/A% 30.16 in 7.0 mi North 16.1 mph 24.2 mph N/A   Mostly Cloudy
11:35 AM 66.4 °F 47.5 °F 51% 30.15 in 10.0 mi North 13.8 mph 21.9 mph N/A   Mostly Cloudy
11:55 AM 66.7 °F 40.8 °F 39% 30.15 in 10.0 mi NNE 19.6 mph 25.3 mph N/A   Scattered Clouds
12:15 PM 67.8 °F 40.8 °F 37% 30.15 in 10.0 mi North 20.7 mph 27.6 mph N/A   Clear
12:35 PM 67.8 °F 41.4 °F 38% 30.15 in 10.0 mi NNE 11.5 mph 24.2 mph N/A   Clear
12:55 PM 68.2 °F 38.8 °F 34% 30.15 in 10.0 mi North 15.0 mph 27.6 mph N/A   Clear
1:15 PM 68.9 °F 40.1 °F 35% 30.16 in 10.0 mi North 13.8 mph 24.2 mph N/A   Clear
1:35 PM 69.3 °F 40.1 °F 35% 30.15 in 10.0 mi North 15.0 mph 23.0 mph N/A   Clear
1:55 PM 69.4 °F 38.3 °F 32% 30.15 in 10.0 mi North 15.0 mph 23.0 mph N/A   Clear
2:15 PM 69.8 °F 38.1 °F 31% 30.15 in 10.0 mi North 15.0 mph 24.2 mph N/A   Clear
2:35 PM 70.2 °F 38.8 °F 32% 30.14 in 10.0 mi North 19.6 mph 26.5 mph N/A   Clear
2:55 PM 70.2 °F 37.2 °F 30% 30.13 in 10.0 mi North 12.7 mph 25.3 mph N/A   Clear
3:15 PM 70.9 °F 37.8 °F 30% 30.14 in 10.0 mi North 17.3 mph 23.0 mph N/A   Clear
3:35 PM 70.9 °F 37.4 °F 29% 30.14 in 10.0 mi North 16.1 mph 21.9 mph N/A   Clear
3:55 PM 70.5 °F 38.8 °F 32% 30.13 in 10.0 mi NNE 13.8 mph 24.2 mph N/A   Clear
4:15 PM 71.4 °F 39.6 °F 31% 30.13 in 10.0 mi North 12.7 mph 21.9 mph N/A   Clear
4:35 PM 71.4 °F 39.4 °F 31% 30.13 in 10.0 mi North 12.7 mph 19.6 mph N/A   Clear
4:55 PM 71.1 °F 39.6 °F 32% 30.12 in 10.0 mi NNE 11.5 mph - N/A   Scattered Clouds
5:15 PM 72.0 °F 40.8 °F 32% 30.12 in 10.0 mi NW 11.5 mph - N/A   Mostly Cloudy
5:35 PM 71.4 °F 39.4 °F 31% 30.12 in 10.0 mi North 13.8 mph 19.6 mph N/A   Scattered Clouds
5:55 PM 70.0 °F 39.4 °F 33% 30.12 in 10.0 mi North 11.5 mph 17.3 mph N/A   Clear
6:15 PM 70.9 °F 39.6 °F 32% 30.12 in 10.0 mi NNW 9.2 mph - N/A   Clear
6:35 PM 70.9 °F 40.3 °F 33% 30.11 in 10.0 mi North 9.2 mph - N/A   Mostly Cloudy
6:55 PM 70.7 °F 41.4 °F 35% 30.11 in 10.0 mi NNW 9.2 mph - N/A   Mostly Cloudy
7:15 PM 70.2 °F 40.8 °F 34% 30.11 in 10.0 mi NW 12.7 mph - N/A   Scattered Clouds
7:35 PM 69.3 °F 41.0 °F 36% 30.11 in 10.0 mi North 8.1 mph - N/A   Clear
7:55 PM 68.9 °F 42.1 °F 38% 30.12 in 10.0 mi NNW 8.1 mph - N/A   Clear
8:15 PM 68.0 °F 42.8 °F 40% 30.11 in 10.0 mi NNW 5.8 mph - N/A   Clear
8:35 PM 65.8 °F 44.8 °F 47% 30.11 in 10.0 mi Calm Calm - N/A   Clear
8:55 PM 63.5 °F 45.9 °F 53% 30.11 in 10.0 mi Calm Calm - N/A   Clear
9:15 PM 61.9 °F 45.7 °F 55% 30.11 in 10.0 mi North 4.6 mph - N/A   Clear
9:35 PM 60.4 °F 47.1 °F 61% 30.11 in 10.0 mi Calm Calm - N/A   Scattered Clouds
9:55 PM 58.5 °F 47.3 °F 66% 30.11 in 10.0 mi Calm Calm - N/A   Mostly Cloudy
10:15 PM 57.2 °F 48.6 °F 73% 30.12 in 10.0 mi Calm Calm - N/A   Mostly Cloudy
10:35 PM 56.8 °F 49.6 °F 77% 30.12 in 10.0 mi Calm Calm - N/A   Overcast
10:55 PM 57.4 °F 49.5 °F 75% 30.12 in 10.0 mi Calm Calm - N/A   Overcast
11:15 PM 55.2 °F 49.1 °F 80% 30.11 in 10.0 mi Calm Calm - N/A   Scattered Clouds
11:35 PM 53.4 °F 48.9 °F 85% 30.11 in 10.0 mi Calm Calm - N/A   Clear
11:55 PM 52.7 °F 47.3 °F 82% 30.11 in 10.0 mi Calm Calm - N/A   Clear